GW7000 Weather Reports


time (UTC)temp
C
wind
direction
speed
KPH
gust
KPH
rain 1hr
cm
rain 24hr
cm
rain mn
cm
humidity
%
barometer
mb
20260506145658 13 320 8.0 9.7 0.00 0.00 0.00 88 1020.8
20260506145155 13 310 4.8 8.0 0.00 0.00 0.00 89 1020.7
20260506144653 13 329 8.0 8.0 0.00 0.00 0.00 89 1020.8
20260506144149 13 335 8.0 9.7 0.00 0.00 0.00 89 1020.8
20260506143647 12 301 4.8 8.0 0.00 0.00 0.00 91 1020.9
20260506143144 12 292 3.2 8.0 0.00 0.00 0.00 92 1020.8
20260506142643 12 313 4.8 6.4 0.00 0.00 0.00 93 1020.8
20260506142140 12 260 4.8 6.4 0.00 0.00 0.00 94 1020.7
20260506141638 11 290 3.2 9.7 0.00 0.00 0.00 95 1020.6
20260506141136 11 300 4.8 8.0 0.00 0.00 0.00 96 1020.5
20260506140633 11 297 1.6 6.4 0.00 0.00 0.00 97 1020.5
20260506140130 10 281 3.2 8.0 0.00 0.00 0.00 97 1020.4
20260506135627 10 324 4.8 6.4 0.00 0.00 0.00 98 1020.4
20260506135123 10 299 4.8 6.4 0.00 0.00 0.00 98 1020.4
20260506134620 10 301 3.2 8.0 0.00 0.00 0.00 98 1020.2
20260506134116 10 277 1.6 4.8 0.00 0.00 0.00 98 1020.2
20260506133614 10 332 1.6 4.8 0.00 0.00 0.00 98 1020.3
20260506133110 10 358 0.0 3.2 0.00 0.00 0.00 98 1020.2
20260506132608 10 311 0.0 3.2 0.00 0.00 0.00 98 1020.0
20260506132104 9 318 4.8 6.4 0.05 0.00 0.00 98 1020.2
20260506131602 9 302 3.2 3.2 0.05 0.00 0.00 98 1020.2
20260506131058 9 283 0.0 3.2 0.00 0.00 0.00 98 1019.8
20260506130555 9 305 3.2 6.4 0.00 0.00 0.00 98 1019.9
20260506130053 9 312 3.2 4.8 0.00 0.00 0.00 98 1019.8
20260506125551 9 298 3.2 3.2 0.00 0.00 0.00 98 1019.7
20260506125048 9 264 0.0 1.6 0.00 0.00 0.00 98 1020.0
20260506124546 9 248 1.6 3.2 0.00 0.00 0.00 98 1019.7
20260506124043 8 22 0.0 0.0 0.00 0.00 0.00 98 1019.7
20260506123541 9 4 3.2 3.2 0.00 0.00 0.00 98 1019.8
20260506123039 9 327 3.2 3.2 0.00 0.00 0.00 98 1019.8
20260506122535 9 332 3.2 3.2 0.00 0.00 0.00 98 1019.5
20260506122034 9 312 3.2 3.2 0.00 0.00 0.00 98 1019.5
20260506121531 9 335 3.2 3.2 0.00 0.00 0.00 98 1019.6
20260506121027 9 335 0.0 4.8 0.00 0.00 0.00 98 1019.4
20260506120525 9 311 4.8 4.8 0.00 0.00 0.00 98 1019.3
20260506120022 9 295 3.2 6.4 0.00 0.00 0.00 98 1019.5
20260506115520 9 304 3.2 6.4 0.00 0.00 0.00 98 1019.4
20260506115018 9 343 1.6 3.2 0.00 0.00 0.00 98 1019.6
20260506114515 9 309 1.6 3.2 0.00 0.00 0.00 98 1019.4
20260506114014 9 319 0.0 1.6 0.00 0.00 0.00 97 1019.6
20260506113511 9 328 0.0 1.6 0.00 0.00 0.00 97 1019.5
20260506113008 9 315 0.0 0.0 0.00 0.00 0.00 97 1019.6
20260506112505 10 336 3.2 3.2 0.00 0.00 0.00 97 1019.3
20260506112002 10 320 3.2 3.2 0.00 0.00 0.00 98 1019.5
20260506111500 9 336 3.2 4.8 0.00 0.00 0.00 97 1019.6
20260506110957 9 0 3.2 4.8 0.00 0.00 0.00 97 1019.4
20260506110455 9 25 3.2 3.2 0.00 0.00 0.00 97 1019.4
20260506105951 9 55 0.0 0.0 0.00 0.00 0.00 97 1019.4
20260506105447 10 107 0.0 0.0 0.00 0.00 0.00 97 1019.2
20260506104945 10 63 1.6 3.2 0.00 0.00 0.00 97 1019.3
20260506104443 10 55 0.0 3.2 0.00 0.00 0.00 97 1019.3
20260506103941 10 83 1.6 1.6 0.00 0.00 0.00 97 1019.2
20260506103438 10 1 1.6 3.2 0.00 0.00 0.00 97 1019.1
20260506102934 10 2 1.6 1.6 0.00 0.00 0.00 96 1019.2
20260506102432 10 352 3.2 3.2 0.00 0.00 0.00 96 1019.0
20260506101929 10 29 0.0 1.6 0.00 0.00 0.00 96 1018.9
20260506101426 10 346 3.2 3.2 0.00 0.00 0.00 96 1018.9
20260506100924 10 334 3.2 3.2 0.00 0.00 0.00 95 1018.9
20260506100422 10 298 4.8 4.8 0.00 0.00 0.00 95 1018.8
20260506095919 10 299 1.6 3.2 0.00 0.00 0.00 95 1018.6
20260506095418 10 314 1.6 3.2 0.00 0.00 0.00 95 1018.8
20260506094913 10 280 1.6 3.2 0.00 0.00 0.00 94 1018.7
20260506094412 10 290 1.6 3.2 0.00 0.00 0.00 94 1018.7
20260506093909 11 351 0.0 1.6 0.00 0.00 0.00 94 1018.6
20260506093407 11 304 0.0 4.8 0.00 0.00 0.00 94 1018.6
20260506092905 11 258 4.8 6.4 0.00 0.00 0.00 95 1018.8
20260506092403 11 284 0.0 3.2 0.00 0.00 0.00 95 1018.7
20260506091859 11 293 0.0 1.6 0.00 0.00 0.00 95 1018.6
20260506091357 11 260 1.6 1.6 0.00 0.00 0.00 95 1018.6
20260506090854 11 278 1.6 1.6 0.00 0.00 0.00 95 1018.7
20260506090352 11 313 1.6 3.2 0.00 0.00 0.00 95 1018.6
20260506085848 11 269 0.0 3.2 0.00 0.00 0.00 95 1018.6
20260506085344 11 313 1.6 3.2 0.00 0.00 0.00 95 1018.7
20260506084841 11 336 0.0 3.2 0.00 0.00 0.00 94 1018.7
20260506084338 11 259 3.2 6.4 0.00 0.00 0.00 94 1018.7
20260506083834 11 327 0.0 3.2 0.00 0.00 0.00 93 1019.0
20260506083332 11 19 4.8 9.7 0.00 0.00 0.00 93 1018.8
20260506082829 11 27 6.4 9.7 0.00 0.00 0.00 94 1019.1
20260506082325 11 19 6.4 9.7 0.00 0.00 0.00 94 1019.2
20260506081822 11 28 8.0 9.7 0.00 0.00 0.00 94 1019.3
20260506081320 11 19 4.8 6.4 0.00 0.00 0.00 94 1019.0
20260506080817 11 12 4.8 4.8 0.00 0.00 0.00 93 1019.1
20260506080313 11 5 3.2 4.8 0.00 0.00 0.00 93 1019.1
20260506073258 11 0 3.2 4.8 0.00 0.00 0.00 96 1018.8
20260506072754 11 5 3.2 4.8 0.00 0.00 0.00 95 1018.8
20260506072252 11 8 3.2 3.2 0.00 0.00 0.00 94 1018.6
20260506071749 11 356 0.0 1.6 0.00 0.00 0.00 94 1018.5
20260506071247 11 339 1.6 3.2 0.00 0.00 0.00 94 1018.4
20260506070744 11 0 1.6 3.2 0.00 0.00 0.00 94 1018.3
20260506070241 11 296 0.0 1.6 0.00 0.00 0.00 93 1018.2
20260506062218 11 29 0.0 1.6 0.00 0.00 0.00 92 1017.9
20260506061714 11 315 0.0 0.0 0.00 0.00 0.00 92 1017.7
20260506061212 11 309 0.0 0.0 0.00 0.00 0.00 92 1017.9
20260506060710 11 345 0.0 0.0 0.00 0.00 0.00 92 1017.6
20260506060207 12 348 1.6 1.6 0.00 0.00 0.00 91 1017.6
20260506051139 13 313 3.2 3.2 0.00 0.00 0.00 87 1017.4
20260506050637 13 316 3.2 4.8 0.00 0.00 0.00 88 1017.5
20260506050134 13 7 0.0 1.6 0.00 0.00 0.00 86 1017.5
20260506045126 13 310 0.0 1.6 0.00 0.00 0.00 83 1017.3
20260506044625 13 310 3.2 4.8 0.00 0.00 0.00 82 1017.4
20260506044122 14 313 4.8 4.8 0.00 0.00 0.00 82 1017.1
20260506043619 14 317 3.2 4.8 0.00 0.00 0.00 82 1017.2
20260506043117 14 315 3.2 6.4 0.00 0.00 0.00 83 1017.0
20260506042616 14 333 3.2 4.8 0.00 0.00 0.00 83 1017.1
20260506042113 14 312 3.2 3.2 0.00 0.00 0.00 84 1017.0
20260506041612 13 303 3.2 3.2 0.00 0.00 0.00 84 1016.8
20260506041108 13 320 3.2 3.2 0.00 0.00 0.00 85 1016.9
20260506040606 14 336 4.8 4.8 0.00 0.00 0.00 84 1016.9
20260506035559 15 320 4.8 6.4 0.00 0.00 0.00 81 1016.7
20260506035056 15 323 6.4 6.4 0.00 0.00 0.00 80 1016.5
20260506034553 15 325 4.8 6.4 0.00 0.00 0.00 79 1016.3
20260506034050 15 330 3.2 6.4 0.00 0.00 0.00 79 1016.3
20260506033547 15 320 4.8 4.8 0.00 0.00 0.00 79 1016.4
20260506033044 15 291 6.4 6.4 0.00 0.00 0.00 79 1016.3
20260506032542 15 310 4.8 4.8 0.00 0.00 0.00 80 1016.1
20260506032038 15 294 4.8 6.4 0.00 0.00 0.00 80 1016.2
20260506031536 15 315 4.8 4.8 0.00 0.00 0.00 81 1015.8
20260506031033 15 339 4.8 6.4 0.00 0.00 0.00 80 1015.8
20260506030531 15 325 6.4 6.4 0.00 0.00 0.00 79 1015.9
20260506030028 15 313 6.4 6.4 0.00 0.00 0.00 77 1015.9
20260506025525 16 304 4.8 6.4 0.00 0.00 0.00 76 1015.9
20260506025020 16 308 4.8 6.4 0.00 0.00 0.00 76 1015.7
20260506024517 16 303 6.4 6.4 0.00 0.00 0.00 76 1015.6
20260506024014 16 321 4.8 6.4 0.00 0.00 0.00 76 1015.6
20260506023510 16 319 4.8 6.4 0.00 0.00 0.00 77 1015.7
20260506023008 16 331 6.4 6.4 0.00 0.00 0.00 75 1015.5
20260506022505 17 340 4.8 6.4 0.00 0.00 0.00 74 1015.6
20260506022003 17 334 4.8 6.4 0.00 0.00 0.00 71 1015.4
20260506021500 17 329 4.8 8.0 0.00 0.00 0.00 70 1015.5
20260506020957 17 330 6.4 9.7 0.00 0.00 0.00 69 1015.4
20260506020454 17 341 8.0 11.3 0.00 0.00 0.00 67 1015.4
20260506015951 17 326 9.7 12.9 0.00 0.00 0.00 67 1015.5
20260506015449 18 322 9.7 12.9 0.00 0.00 0.00 66 1015.5
20260506014946 18 318 9.7 9.7 0.00 0.00 0.00 67 1015.4
20260506014442 18 290 6.4 11.3 0.00 0.00 0.00 67 1015.6
20260506013939 18 344 9.7 16.1 0.00 0.00 0.00 65 1015.5
20260506013437 18 320 6.4 9.7 0.00 0.00 0.00 67 1015.7
20260506012933 18 342 8.0 9.7 0.00 0.00 0.00 65 1015.5
20260506012430 18 4 4.8 12.9 0.00 0.00 0.00 66 1015.5
20260506011927 18 346 6.4 12.9 0.00 0.00 0.00 65 1015.6
20260506011424 18 3 8.0 11.3 0.00 0.00 0.00 66 1015.6
20260506010921 18 304 6.4 11.3 0.00 0.00 0.00 65 1015.5
20260506010420 18 315 6.4 9.7 0.00 0.00 0.00 65 1015.7
20260506005915 18 307 4.8 9.7 0.00 0.00 0.00 65 1015.4
20260506005414 17 317 4.8 6.4 0.00 0.00 0.00 69 1015.7
20260506004908 17 328 4.8 8.0 0.00 0.00 0.00 71 1015.7
20260506004407 17 311 6.4 8.0 0.00 0.00 0.00 70 1015.6
20260506003902 17 0 4.8 9.7 0.00 0.00 0.00 71 1015.4
20260506003359 17 324 8.0 9.7 0.00 0.00 0.00 69 1015.5
20260506002855 17 336 6.4 9.7 0.00 0.00 0.00 69 1015.6
20260506002351 17 331 6.4 9.7 0.00 0.00 0.00 68 1015.5
20260506001848 17 332 6.4 11.3 0.00 0.00 0.00 69 1015.7
20260506001344 17 307 11.3 11.3 0.00 0.00 0.00 70 1015.5
20260506000841 17 325 4.8 9.7 0.00 0.00 0.00 70 1015.5
20260506000340 17 307 9.7 9.7 0.00 0.00 0.00 69 1015.5
20260505235836 17 296 11.3 14.5 0.00 0.00 0.00 68 1015.4
20260505235333 17 303 9.7 14.5 0.00 0.00 0.00 68 1015.5
20260505234830 17 307 4.8 12.9 0.00 0.00 0.00 69 1015.5
20260505234328 17 306 6.4 12.9 0.00 0.00 0.00 67 1015.4
20260505233825 17 311 12.9 12.9 0.00 0.00 0.00 68 1015.4
20260505233323 17 310 8.0 16.1 0.00 0.00 0.00 68 1015.5
20260505232820 17 305 4.8 6.4 0.00 0.00 0.00 67 1015.4
20260505232317 17 302 8.0 11.3 0.00 0.00 0.00 65 1015.6
20260505231814 17 339 4.8 11.3 0.00 0.00 0.00 67 1015.5
20260505231312 17 346 6.4 9.7 0.00 0.00 0.00 69 1015.5
20260505230810 17 349 8.0 9.7 0.00 0.00 0.00 68 1015.4
20260505230306 17 348 6.4 11.3 0.00 0.00 0.00 68 1015.6
20260505225803 17 301 8.0 9.7 0.00 0.00 0.00 67 1015.7
20260505225301 17 311 3.2 9.7 0.00 0.00 0.00 66 1015.5
20260505224800 17 308 8.0 12.9 0.00 0.00 0.00 64 1015.6
20260505224259 18 343 9.7 12.9 0.00 0.00 0.00 64 1015.6
20260505223756 18 341 11.3 17.7 0.00 0.00 0.00 65 1015.5
20260505223252 18 305 9.7 11.3 0.00 0.00 0.00 65 1015.9
20260505222748 17 318 12.9 17.7 0.00 0.00 0.00 65 1015.5
20260505222245 17 325 11.3 17.7 0.00 0.00 0.00 66 1015.8
20260505221742 17 339 11.3 17.7 0.00 0.00 0.00 65 1015.6
20260505221239 17 342 8.0 9.7 0.00 0.00 0.00 67 1015.7
20260505220735 17 335 9.7 14.5 0.00 0.00 0.00 69 1015.6
20260505220233 17 335 8.0 11.3 0.00 0.00 0.00 69 1015.8
20260505215731 17 323 14.5 16.1 0.00 0.00 0.00 69 1015.8
20260505215228 17 309 12.9 12.9 0.00 0.00 0.00 67 1015.7
20260505214726 17 352 9.7 14.5 0.00 0.00 0.00 70 1015.8
20260505214223 16 347 6.4 16.1 0.00 0.00 0.00 72 1015.9
20260505213721 17 325 12.9 16.1 0.00 0.00 0.00 70 1015.9
20260505213218 17 335 8.0 12.9 0.00 0.00 0.00 71 1015.9
20260505212714 17 340 8.0 9.7 0.00 0.00 0.00 72 1016.0
20260505212211 16 350 8.0 9.7 0.00 0.00 0.00 70 1016.0
20260505211708 17 346 12.9 16.1 0.00 0.00 0.00 70 1016.0
20260505211205 17 334 6.4 11.3 0.00 0.00 0.00 70 1015.9
20260505210701 17 326 8.0 12.9 0.00 0.00 0.00 71 1015.8
20260505210159 17 330 9.7 11.3 0.00 0.00 0.00 68 1015.8
20260505205656 17 329 9.7 14.5 0.00 0.00 0.00 70 1015.8
20260505205154 16 332 4.8 11.3 0.00 0.00 0.00 68 1015.9
20260505204650 17 358 4.8 8.0 0.00 0.00 0.00 70 1016.0
20260505204148 17 294 4.8 9.7 0.00 0.00 0.00 67 1016.0
20260505203645 16 339 8.0 14.5 0.00 0.00 0.00 70 1016.1
20260505203142 17 327 9.7 11.3 0.00 0.00 0.00 69 1016.1
20260505202638 17 316 9.7 11.3 0.00 0.00 0.00 66 1016.2
20260505202134 17 2 11.3 12.9 0.00 0.00 0.00 67 1016.0
20260505201630 17 341 8.0 17.7 0.00 0.00 0.00 68 1016.0
20260505201128 17 306 6.4 14.5 0.00 0.00 0.00 67 1016.0
20260505200626 17 334 11.3 14.5 0.00 0.00 0.00 65 1016.1
20260505200123 17 301 8.0 14.5 0.00 0.00 0.00 66 1016.2
20260505195619 17 290 9.7 14.5 0.00 0.00 0.00 67 1016.0
20260505195117 17 330 8.0 8.0 0.00 0.00 0.00 66 1016.2
20260505194614 17 301 8.0 17.7 0.00 0.00 0.00 66 1016.2
20260505194109 16 0 4.8 6.4 0.00 0.00 0.00 66 1016.2
20260505193607 17 304 14.5 16.1 0.00 0.00 0.00 65 1016.4
20260505193103 16 295 6.4 9.7 0.00 0.00 0.00 65 1016.3
20260505192603 16 359 8.0 9.7 0.00 0.00 0.00 66 1016.3
20260505192059 16 336 6.4 8.0 0.00 0.00 0.00 66 1016.3
20260505191557 16 311 6.4 8.0 0.00 0.00 0.00 68 1016.2
20260505191055 16 304 9.7 14.5 0.00 0.00 0.00 66 1016.3
20260505190550 16 335 6.4 16.1 0.00 0.00 0.00 64 1016.3
20260505190046 16 324 8.0 12.9 0.00 0.00 0.00 67 1016.0
20260505185543 16 300 6.4 9.7 0.00 0.00 0.00 68 1016.3
20260505185039 16 353 3.2 6.4 0.00 0.00 0.00 70 1016.3
20260505184536 15 321 8.0 11.3 0.00 0.00 0.00 67 1016.4
20260505184033 16 304 8.0 17.7 0.00 0.00 0.00 68 1016.2
20260505183529 16 308 8.0 16.1 0.00 0.00 0.00 67 1016.2
20260505183027 16 326 14.5 14.5 0.00 0.00 0.00 68 1016.3
20260505182523 16 281 3.2 11.3 0.00 0.00 0.00 68 1016.0
20260505182020 16 319 8.0 8.0 0.00 0.00 0.00 69 1016.2
20260505181516 15 348 6.4 12.9 0.00 0.00 0.00 71 1016.2
20260505181014 15 303 12.9 17.7 0.00 0.00 0.00 71 1016.1
20260505180509 15 8 11.3 12.9 0.00 0.00 0.00 71 1016.0
20260505180008 15 321 4.8 9.7 0.00 0.00 0.00 73 1016.1
20260505175502 15 312 9.7 14.5 0.00 0.00 0.00 73 1016.1
20260505175000 15 335 9.7 11.3 0.00 0.00 0.00 74 1015.8
20260505174457 15 311 8.0 9.7 0.00 0.00 0.00 76 1016.0
20260505173953 14 339 9.7 11.3 0.00 0.00 0.00 75 1015.9
20260505173449 14 304 6.4 9.7 0.00 0.00 0.00 77 1016.1
20260505172946 14 294 6.4 8.0 0.00 0.00 0.00 77 1015.8
20260505172445 14 303 4.8 4.8 0.00 0.00 0.00 79 1015.9
20260505171944 14 337 4.8 6.4 0.00 0.00 0.00 79 1015.9
20260505171441 13 338 6.4 6.4 0.00 0.00 0.00 80 1016.0
20260505170937 13 338 3.2 6.4 0.00 0.00 0.00 81 1015.8
20260505170434 13 347 4.8 6.4 0.00 0.00 0.00 81 1015.9
20260505165930 13 351 3.2 4.8 0.00 0.00 0.00 82 1015.9
20260505165426 13 345 3.2 4.8 0.00 0.00 0.00 82 1015.6
20260505164921 13 354 4.8 8.0 0.00 0.00 0.00 81 1015.9
20260505164418 13 321 6.4 8.0 0.00 0.00 0.00 80 1015.9
20260505163916 13 335 8.0 8.0 0.00 0.00 0.00 81 1015.9
20260505163415 13 334 3.2 8.0 0.00 0.00 0.00 81 1016.1
20260505162914 13 350 8.0 12.9 0.00 0.00 0.00 78 1016.0
20260505162409 14 353 6.4 11.3 0.00 0.00 0.00 78 1015.8
20260505161906 14 321 8.0 11.3 0.00 0.00 0.00 77 1015.7
20260505161403 14 311 8.0 12.9 0.00 0.00 0.00 76 1015.9
20260505160900 14 358 8.0 14.5 0.00 0.00 0.00 75 1015.6
20260505160358 15 341 8.0 9.7 0.00 0.00 0.00 76 1016.0
20260505153337 13 326 6.4 8.0 0.00 0.00 0.00 80 1015.6
20260505152835 13 359 4.8 6.4 0.00 0.00 0.00 81 1015.4
20260505152332 13 4 3.2 4.8 0.00 0.00 0.00 81 1015.6
20260505151831 13 295 4.8 6.4 0.00 0.00 0.00 82 1015.3
20260505151328 13 298 3.2 6.4 0.00 0.00 0.00 82 1015.3
20260505150825 13 334 3.2 4.8 0.00 0.00 0.00 84 1015.3
20260505150322 13 322 6.4 6.4 0.00 0.00 0.00 84 1015.3